ABG203 UHWW-FACT

Flight info

Callsign ABG203
Flight time N/A
Altitude 29000
Route VATIS2F VATIS A900 RIVAT G711 KANSU/N0498F300 B467 TENAS A586 CJU Z82 PANSI Y711 MUGUS Y742 SALMI B576 APU DCT MKG DCT KAPLI/N0504F320 DCT IDOSI P901 IKELA/K0933F320 A1 PAPRA/N0503F320 R575 SMU W32 DORNA Y3 PUT P627 ANPUB/N0497F340 P627 KADAP R348 NKW/N0489F360 R348 RUPIG UR348 TIGUS/N0480F380 UR348 TNV UB536 EROPA UT536 VMA UM310 TONKA UT949 WRV UZ36 BLV UW95 PVV UZ40 ESRUK UQ51 GETEN GETEN1B
Aircraft B77L/H-SDE1E2E3FGHIJ2J3J4J5M1RWXY/LB1D1

Departure

Time 2026-04-14 19:37
Airport Vladivostok International Airport (UHWW)

Arrival

Time N/A
Airport Cape Town International Airport (FACT)
Time Latitude Longitude Altitude Speed Heading
2026-04-14 19:16 43.39838 132.16351 37 ft 0 kts 150°
2026-04-14 19:30 43.39837 132.16352 37 ft 3 kts 151°
2026-04-14 19:30 43.39777 132.16331 37 ft 8 kts 221°
2026-04-14 19:30 43.39749 132.16253 37 ft 12 kts 271°
2026-04-14 19:30 43.39821 132.16159 37 ft 16 kts 329°
2026-04-14 19:31 43.39879 132.16061 37 ft 11 kts 269°
2026-04-14 19:31 43.39840 132.15931 37 ft 18 kts 239°
2026-04-14 19:31 43.39772 132.15764 36 ft 22 kts 241°
2026-04-14 19:31 43.39699 132.15576 37 ft 22 kts 242°
2026-04-14 19:32 43.39623 132.15389 35 ft 22 kts 240°
2026-04-14 19:32 43.39547 132.15202 37 ft 22 kts 240°
2026-04-14 19:32 43.39471 132.15016 36 ft 22 kts 240°
2026-04-14 19:32 43.39394 132.14830 36 ft 22 kts 240°
2026-04-14 19:33 43.39318 132.14644 35 ft 22 kts 240°
2026-04-14 19:33 43.39246 132.14454 37 ft 22 kts 242°
2026-04-14 19:33 43.39169 132.14268 37 ft 22 kts 240°
2026-04-14 19:33 43.39092 132.14084 37 ft 22 kts 240°
2026-04-14 19:34 43.38943 132.13708 37 ft 22 kts 241°
2026-04-14 19:34 43.38868 132.13525 37 ft 22 kts 240°
2026-04-14 19:34 43.38791 132.13338 37 ft 22 kts 243°
2026-04-14 19:35 43.38789 132.13188 37 ft 11 kts 314°
2026-04-14 19:35 43.38881 132.13114 38 ft 17 kts 333°
2026-04-14 19:35 43.38962 132.13156 35 ft 15 kts 54°
2026-04-14 19:35 43.38981 132.13200 37 ft 0 kts 61°
2026-04-14 19:36 43.38982 132.13204 37 ft 5 kts 61°
2026-04-14 19:36 43.39118 132.13535 37 ft 79 kts 60°
2026-04-14 19:36 43.39513 132.14507 36 ft 153 kts 61°
2026-04-14 19:36 43.40134 132.16031 204 ft 199 kts 59°
2026-04-14 19:37 43.40904 132.17685 815 ft 209 kts 56°
2026-04-14 19:37 43.41695 132.19365 1688 ft 205 kts 62°
2026-04-14 19:37 43.42365 132.21180 2088 ft 224 kts 64°
2026-04-14 19:37 43.42837 132.22490 2244 ft 236 kts 63°
2026-04-14 19:38 43.43619 132.24579 2534 ft 252 kts 62°
2026-04-14 19:38 43.44459 132.26740 3089 ft 260 kts 62°
2026-04-14 19:38 43.45334 132.28944 3738 ft 264 kts 61°
2026-04-14 19:38 43.46228 132.31171 4427 ft 267 kts 61°
2026-04-14 19:39 43.47124 132.33422 5085 ft 269 kts 66°
2026-04-14 19:39 43.47515 132.35933 5549 ft 273 kts 96°
2026-04-14 19:39 43.46961 132.38403 6209 ft 272 kts 123°
2026-04-14 19:39 43.45706 132.40345 6782 ft 274 kts 144°
2026-04-14 19:40 43.44106 132.41734 7237 ft 279 kts 151°
2026-04-14 19:40 43.42374 132.42977 7797 ft 278 kts 160°
2026-04-14 19:40 43.40495 132.43311 8076 ft 282 kts 192°
2026-04-14 19:40 43.38730 132.42162 8532 ft 285 kts 224°
2026-04-14 19:41 43.37614 132.39953 9068 ft 284 kts 244°
2026-04-14 19:41 43.36729 132.37501 9552 ft 288 kts 242°
2026-04-14 19:41 43.35796 132.35080 10238 ft 286 kts 242°
2026-04-14 19:41 43.34832 132.32674 10617 ft 292 kts 241°
2026-04-14 19:42 43.33833 132.30140 10761 ft 312 kts 244°
2026-04-14 19:42 43.32841 132.27389 10925 ft 330 kts 245°
2026-04-14 19:42 43.31787 132.24496 11166 ft 347 kts 244°
2026-04-14 19:42 43.30507 132.21680 11492 ft 354 kts 227°
2026-04-14 19:43 43.28492 132.19677 12004 ft 364 kts 208°
2026-04-14 19:43 43.26063 132.18632 12704 ft 371 kts 192°
2026-04-14 19:43 43.23481 132.18252 13335 ft 376 kts 188°
2026-04-14 19:43 43.20857 132.17996 13967 ft 379 kts 189°
2026-04-14 19:44 43.18233 132.17721 14626 ft 380 kts 188°
2026-04-14 19:44 43.15577 132.17525 15196 ft 384 kts 188°
2026-04-14 19:44 43.12897 132.17334 15761 ft 387 kts 188°
2026-04-14 19:44 43.10201 132.17115 16332 ft 390 kts 189°
2026-04-14 19:45 43.07522 132.16874 16901 ft 392 kts 189°
2026-04-14 19:45 43.04791 132.16612 17460 ft 395 kts 189°
2026-04-14 19:45 43.02045 132.16338 17989 ft 398 kts 190°
2026-04-14 19:45 42.99277 132.16059 18521 ft 400 kts 190°
2026-04-14 19:46 42.96485 132.15805 18917 ft 405 kts 190°
2026-04-14 19:46 42.93667 132.15472 19384 ft 408 kts 191°
2026-04-14 19:46 42.90831 132.15233 19823 ft 408 kts 188°
2026-04-14 19:46 42.87974 132.15050 19982 ft 414 kts 191°
2026-04-14 19:47 42.85099 132.14719 20494 ft 415 kts 188°
2026-04-14 19:47 42.82186 132.14715 20910 ft 422 kts 182°
2026-04-14 19:47 42.79225 132.15003 21142 ft 431 kts 181°
2026-04-14 19:47 42.76225 132.15389 21582 ft 434 kts 180°
2026-04-14 19:48 42.73216 132.15770 22085 ft 435 kts 181°
2026-04-14 19:48 42.70194 132.16112 22511 ft 437 kts 181°
2026-04-14 19:48 42.67141 132.16418 22891 ft 441 kts 182°
2026-04-14 19:48 42.64066 132.16699 23271 ft 445 kts 182°
2026-04-14 19:49 42.60970 132.16972 23658 ft 448 kts 182°
2026-04-14 19:49 42.57895 132.17239 24056 ft 450 kts 182°
2026-04-14 19:49 42.54759 132.17516 24468 ft 453 kts 182°
2026-04-14 19:49 42.51609 132.17788 24901 ft 454 kts 182°
2026-04-14 19:50 42.48448 132.18062 25296 ft 456 kts 182°
2026-04-14 19:50 42.45270 132.18338 25676 ft 458 kts 182°
2026-04-14 19:50 42.42082 132.18617 26056 ft 460 kts 183°
2026-04-14 19:50 42.38885 132.18895 26434 ft 461 kts 183°
2026-04-14 19:51 42.35673 132.19169 26798 ft 463 kts 183°
2026-04-14 19:51 42.32453 132.19447 27165 ft 465 kts 183°
2026-04-14 19:51 42.29221 132.19728 27535 ft 466 kts 183°
2026-04-14 19:51 42.25982 132.20010 27897 ft 467 kts 183°
2026-04-14 19:52 42.22739 132.20290 28217 ft 468 kts 184°
2026-04-14 19:52 42.19480 132.20572 28519 ft 470 kts 184°
2026-04-14 19:52 42.16209 132.20855 28818 ft 471 kts 184°
2026-04-14 19:52 42.12935 132.21139 29132 ft 472 kts 184°
2026-04-14 19:53 42.09649 132.21423 29418 ft 474 kts 184°
2026-04-14 19:53 42.06357 132.21706 29676 ft 475 kts 184°
2026-04-14 19:53 42.03058 132.21990 29971 ft 475 kts 184°
2026-04-14 19:53 41.99746 132.22275 30035 ft 479 kts 184°
2026-04-14 19:54 41.89814 132.23134 30057 ft 474 kts 184°
2026-04-14 19:55 41.83245 132.23693 30065 ft 473 kts 184°
2026-04-14 19:55 41.76719 132.24252 30066 ft 473 kts 184°
2026-04-14 19:56 41.70152 132.24832 30056 ft 473 kts 184°
2026-04-14 19:56 41.63579 132.25397 30065 ft 473 kts 185°
2026-04-14 19:57 41.56998 132.25930 30066 ft 475 kts 184°
2026-04-14 19:57 41.50393 132.26490 30066 ft 477 kts 184°
2026-04-14 19:58 41.43768 132.27045 30059 ft 477 kts 184°
2026-04-14 19:58 41.37148 132.27574 30057 ft 477 kts 184°
2026-04-14 19:59 41.30518 132.28101 30059 ft 477 kts 184°
2026-04-14 19:59 41.23886 132.28638 30057 ft 478 kts 185°
2026-04-14 20:00 41.17247 132.29169 30052 ft 478 kts 185°
2026-04-14 20:00 41.10609 132.29713 30047 ft 477 kts 185°
2026-04-14 20:01 41.04020 132.30240 30045 ft 478 kts 185°
2026-04-14 20:01 40.97379 132.30767 30049 ft 479 kts 185°
2026-04-14 20:02 40.90717 132.31294 30045 ft 479 kts 185°
2026-04-14 20:02 40.84062 132.31826 30047 ft 480 kts 185°
2026-04-14 20:03 40.77389 132.32354 30045 ft 481 kts 185°
2026-04-14 20:03 40.70716 132.32886 30035 ft 481 kts 185°
2026-04-14 20:04 40.64043 132.33416 30041 ft 480 kts 185°
2026-04-14 20:04 40.57375 132.33944 30037 ft 480 kts 185°
2026-04-14 20:05 40.50701 132.34467 30042 ft 481 kts 185°
2026-04-14 20:05 40.44017 132.34993 30016 ft 481 kts 185°
2026-04-14 20:06 40.37333 132.35513 30031 ft 482 kts 185°
2026-04-14 20:06 40.30685 132.36034 30027 ft 482 kts 185°
2026-04-14 20:07 40.24001 132.36563 30023 ft 481 kts 185°
2026-04-14 20:07 40.17320 132.37080 30031 ft 481 kts 185°
2026-04-14 20:08 40.10640 132.37594 30013 ft 481 kts 185°
2026-04-14 20:08 40.03960 132.38119 30021 ft 481 kts 185°
2026-04-14 20:09 39.97282 132.38636 30018 ft 481 kts 185°
2026-04-14 20:09 39.90607 132.39152 30023 ft 480 kts 185°
2026-04-14 20:10 39.83926 132.39667 30014 ft 481 kts 185°
2026-04-14 20:10 39.77243 132.40183 30012 ft 482 kts 185°
2026-04-14 20:11 39.70536 132.40697 30003 ft 483 kts 185°
2026-04-14 20:11 39.63812 132.41217 30009 ft 485 kts 185°
2026-04-14 20:12 39.57077 132.41733 30002 ft 485 kts 185°
2026-04-14 20:12 39.50374 132.42247 30001 ft 486 kts 185°
2026-04-14 20:13 39.43625 132.42764 30011 ft 486 kts 185°
2026-04-14 20:13 39.36867 132.43273 29998 ft 486 kts 185°
2026-04-14 20:14 39.30110 132.43681 30000 ft 486 kts 186°
2026-04-14 20:14 39.23355 132.44054 29999 ft 487 kts 186°
2026-04-14 20:15 39.16587 132.44429 30005 ft 487 kts 186°
2026-04-14 20:15 39.09812 132.44820 29997 ft 488 kts 186°
2026-04-14 20:16 39.03018 132.45219 29997 ft 489 kts 186°
2026-04-14 20:16 38.96218 132.45609 29990 ft 490 kts 186°
2026-04-14 20:17 38.89440 132.45998 29986 ft 491 kts 186°
2026-04-14 20:17 38.82615 132.46394 29977 ft 491 kts 186°
2026-04-14 20:18 38.75786 132.46786 29982 ft 492 kts 186°
2026-04-14 20:18 38.68945 132.47177 29978 ft 490 kts 187°
2026-04-14 20:18 38.65589 132.46969 29971 ft 475 kts 199°
2026-04-14 20:19 38.62461 132.45876 29981 ft 461 kts 210°
2026-04-14 20:19 38.59600 132.44150 29978 ft 450 kts 219°
2026-04-14 20:19 38.57074 132.41887 29985 ft 441 kts 225°
2026-04-14 20:20 38.52122 132.37192 29983 ft 445 kts 223°
2026-04-14 20:20 38.47084 132.32560 29974 ft 449 kts 223°
2026-04-14 20:21 38.42030 132.27943 29973 ft 450 kts 223°
2026-04-14 20:21 38.36935 132.23291 29971 ft 451 kts 223°
2026-04-14 20:22 38.31833 132.18646 29971 ft 451 kts 223°
2026-04-14 20:22 38.26736 132.14002 29970 ft 450 kts 223°
2026-04-14 20:23 38.21656 132.09385 29973 ft 448 kts 223°
2026-04-14 20:23 38.16589 132.04782 29970 ft 447 kts 223°
2026-04-14 20:24 38.11532 132.00205 29968 ft 446 kts 223°
2026-04-14 20:24 38.06469 131.95624 29959 ft 447 kts 223°
2026-04-14 20:25 38.01441 131.91086 29955 ft 447 kts 223°
2026-04-14 20:25 37.96377 131.86518 29955 ft 446 kts 223°
2026-04-14 20:26 37.91310 131.81961 29966 ft 446 kts 223°
2026-04-14 20:26 37.86248 131.77411 29962 ft 447 kts 223°
2026-04-14 20:27 37.81175 131.72867 29964 ft 447 kts 223°
2026-04-14 20:27 37.76088 131.68311 29962 ft 449 kts 223°
2026-04-14 20:28 37.70991 131.63755 29952 ft 449 kts 223°
2026-04-14 20:28 37.65889 131.59196 29954 ft 449 kts 224°
2026-04-14 20:29 37.61231 131.54179 29956 ft 439 kts 232°
2026-04-14 20:29 37.56943 131.48699 29952 ft 440 kts 231°
2026-04-14 20:30 37.52609 131.43254 29957 ft 440 kts 231°
2026-04-14 20:30 37.48260 131.37810 29949 ft 441 kts 231°
2026-04-14 20:31 37.43907 131.32381 29955 ft 441 kts 231°
2026-04-14 20:31 37.39551 131.26953 29952 ft 441 kts 231°
2026-04-14 20:32 37.35194 131.21522 29957 ft 441 kts 231°
2026-04-14 20:32 37.30833 131.16090 29959 ft 443 kts 231°
2026-04-14 20:33 37.26453 131.10654 29952 ft 442 kts 230°
2026-04-14 20:33 37.22076 131.05226 29952 ft 442 kts 230°
2026-04-14 20:34 37.15486 130.97090 29952 ft 443 kts 230°
2026-04-14 20:34 37.11839 130.92589 29954 ft 442 kts 230°
2026-04-14 20:35 37.06732 130.86305 29956 ft 443 kts 230°
2026-04-14 20:35 37.02339 130.80894 29948 ft 443 kts 230°
2026-04-14 20:36 36.98645 130.76359 29950 ft 444 kts 230°
2026-04-14 20:36 36.94266 130.70993 29956 ft 444 kts 230°
2026-04-14 20:37 36.89850 130.65592 29950 ft 444 kts 230°
2026-04-14 20:37 36.85427 130.60186 29958 ft 445 kts 230°
2026-04-14 20:38 36.80989 130.54781 29952 ft 446 kts 230°
2026-04-14 20:38 36.76553 130.49382 29955 ft 445 kts 229°
2026-04-14 20:39 36.72125 130.43999 29949 ft 445 kts 229°
2026-04-14 20:39 36.67691 130.38618 29955 ft 445 kts 229°
2026-04-14 20:40 36.63258 130.33248 29961 ft 445 kts 229°
2026-04-14 20:40 36.58821 130.27884 29963 ft 445 kts 229°
2026-04-14 20:41 36.54372 130.22511 29962 ft 446 kts 229°
2026-04-14 20:41 36.49919 130.17144 29961 ft 446 kts 229°
2026-04-14 20:42 36.45456 130.11778 29955 ft 447 kts 229°
2026-04-14 20:43 36.38779 130.03767 29958 ft 447 kts 229°
2026-04-14 20:43 36.34305 129.98404 29964 ft 447 kts 229°
2026-04-14 20:44 36.29825 129.93047 29963 ft 448 kts 229°
2026-04-14 20:44 36.25338 129.87692 29965 ft 448 kts 229°
2026-04-14 20:45 36.20845 129.82336 29963 ft 448 kts 228°
2026-04-14 20:45 36.16353 129.76989 29964 ft 449 kts 229°
2026-04-14 20:46 36.11846 129.71637 29963 ft 449 kts 228°
2026-04-14 20:46 36.07344 129.66302 29953 ft 448 kts 228°
2026-04-14 20:47 36.02839 129.60968 29950 ft 448 kts 228°
2026-04-14 20:47 35.98371 129.55687 29976 ft 447 kts 228°
2026-04-14 20:48 35.93880 129.50387 29982 ft 447 kts 228°
2026-04-14 20:48 35.89384 129.45090 29982 ft 447 kts 228°
2026-04-14 20:49 35.84884 129.39796 29981 ft 447 kts 228°
2026-04-14 20:49 35.80380 129.34510 29993 ft 447 kts 228°
2026-04-14 20:50 35.75864 129.29215 29989 ft 449 kts 228°
2026-04-14 20:50 35.71337 129.23915 29993 ft 450 kts 228°
2026-04-14 20:51 35.66796 129.18605 29994 ft 450 kts 228°
2026-04-14 20:51 35.62253 129.13311 30002 ft 450 kts 228°
2026-04-14 20:52 35.57716 129.08031 29997 ft 449 kts 228°
2026-04-14 20:52 35.53221 129.02807 30015 ft 447 kts 228°
2026-04-14 20:53 35.48701 128.97559 29973 ft 447 kts 228°
2026-04-14 20:53 35.44186 128.92325 29998 ft 446 kts 228°
2026-04-14 20:54 35.39670 128.87099 29986 ft 448 kts 228°
2026-04-14 20:54 35.35130 128.81853 29978 ft 449 kts 227°
2026-04-14 20:55 35.30577 128.76602 29964 ft 450 kts 227°
2026-04-14 20:55 35.26007 128.71342 29961 ft 451 kts 227°
2026-04-14 20:56 35.21433 128.66087 29946 ft 451 kts 227°
2026-04-14 20:56 35.16863 128.60844 29949 ft 450 kts 227°
2026-04-14 20:57 35.12329 128.55651 29946 ft 449 kts 227°
2026-04-14 20:57 35.07765 128.50428 29932 ft 450 kts 227°
2026-04-14 20:58 35.03203 128.45217 29930 ft 449 kts 227°
2026-04-14 20:58 34.98647 128.40024 29930 ft 449 kts 227°
2026-04-14 20:59 34.94088 128.34832 29938 ft 449 kts 227°
2026-04-14 20:59 34.89521 128.29641 29936 ft 449 kts 227°
2026-04-14 21:00 34.84950 128.24456 29934 ft 449 kts 227°
2026-04-14 21:00 34.80377 128.19277 29936 ft 449 kts 227°
2026-04-14 21:01 34.75805 128.14102 29936 ft 449 kts 227°
2026-04-14 21:01 34.71253 128.08961 29935 ft 449 kts 227°
2026-04-14 21:02 34.66677 128.03798 29936 ft 449 kts 225°
2026-04-14 21:02 34.62098 127.98644 29933 ft 448 kts 225°
2026-04-14 21:03 34.57531 127.93511 29934 ft 447 kts 225°
2026-04-14 21:03 34.52963 127.88384 29935 ft 447 kts 225°
2026-04-14 21:04 34.48397 127.83269 29943 ft 447 kts 225°
2026-04-14 21:04 34.43829 127.78158 29945 ft 447 kts 225°
2026-04-14 21:05 34.39261 127.73052 29944 ft 447 kts 225°
2026-04-14 21:05 34.34679 127.67947 29944 ft 447 kts 225°
2026-04-14 21:06 34.30101 127.62850 29945 ft 448 kts 225°
2026-04-14 21:06 34.25550 127.57785 29943 ft 448 kts 225°
2026-04-14 21:07 34.20964 127.52694 29948 ft 448 kts 225°
2026-04-14 21:07 34.16371 127.47605 29941 ft 448 kts 225°
2026-04-14 21:08 34.11772 127.42516 29953 ft 448 kts 225°
2026-04-14 21:08 34.07171 127.37432 29956 ft 449 kts 225°
2026-04-14 21:09 34.02563 127.32347 29954 ft 449 kts 225°
2026-04-14 21:09 33.97948 127.27263 29958 ft 450 kts 225°
2026-04-14 21:10 33.93319 127.22170 29953 ft 451 kts 225°
2026-04-14 21:10 33.88687 127.17083 29956 ft 451 kts 225°
2026-04-14 21:10 33.86365 127.14535 30074 ft 453 kts 225°
2026-04-14 21:11 33.84037 127.11985 30485 ft 450 kts 225°
2026-04-14 21:11 33.81737 127.09468 30981 ft 445 kts 226°
2026-04-14 21:11 33.79457 127.06975 31483 ft 440 kts 226°
2026-04-14 21:11 33.77204 127.04512 31919 ft 436 kts 226°
2026-04-14 21:12 33.74952 127.02050 31930 ft 439 kts 226°
2026-04-14 21:12 33.70450 126.97133 31958 ft 437 kts 226°
2026-04-14 21:13 33.65989 126.92269 31965 ft 436 kts 226°
2026-04-14 21:13 33.61503 126.87383 31961 ft 436 kts 226°
2026-04-14 21:14 33.54762 126.80061 31965 ft 436 kts 226°
2026-04-14 21:14 33.50263 126.75182 31965 ft 437 kts 226°
2026-04-14 21:15 33.45749 126.70294 31966 ft 438 kts 226°
2026-04-14 21:15 33.41229 126.65403 31960 ft 439 kts 226°
2026-04-14 21:16 33.36701 126.60499 31963 ft 438 kts 227°
2026-04-14 21:16 33.32218 126.55561 31967 ft 438 kts 227°
2026-04-14 21:17 33.27773 126.50657 31965 ft 438 kts 227°
2026-04-14 21:17 33.23287 126.45726 31962 ft 438 kts 227°
2026-04-14 21:18 33.18802 126.40806 31962 ft 437 kts 227°
2026-04-14 21:18 33.14324 126.35906 31959 ft 437 kts 227°
2026-04-14 21:19 33.09853 126.31014 31963 ft 435 kts 227°
2026-04-14 21:19 33.05388 126.26139 31965 ft 435 kts 227°
2026-04-14 21:20 33.00534 126.21758 31966 ft 443 kts 217°
2026-04-14 21:20 32.95051 126.18341 31964 ft 450 kts 209°
2026-04-14 21:21 32.89154 126.15787 31966 ft 451 kts 207°
2026-04-14 21:21 32.83240 126.13322 31962 ft 450 kts 207°
2026-04-14 21:22 32.77364 126.10832 31962 ft 448 kts 208°
2026-04-14 21:22 32.71553 126.08347 31963 ft 446 kts 208°
2026-04-14 21:23 32.65718 126.05856 31963 ft 445 kts 208°
2026-04-14 21:23 32.59893 126.03371 31965 ft 444 kts 208°
2026-04-14 21:24 32.54084 126.00894 31963 ft 443 kts 208°
2026-04-14 21:24 32.48285 125.98426 31962 ft 443 kts 208°
2026-04-14 21:25 32.42484 125.95970 31963 ft 443 kts 208°
2026-04-14 21:25 32.36685 125.93516 31962 ft 442 kts 208°
2026-04-14 21:26 32.30882 125.91068 31964 ft 443 kts 208°
2026-04-14 21:26 32.25071 125.88610 31965 ft 443 kts 209°
2026-04-14 21:27 32.19267 125.86165 31963 ft 443 kts 208°
2026-04-14 21:27 32.13466 125.83721 31957 ft 442 kts 209°
2026-04-14 21:28 32.07715 125.81302 31952 ft 442 kts 209°
2026-04-14 21:28 32.01923 125.78867 31954 ft 442 kts 209°
2026-04-14 21:29 31.96134 125.76440 31955 ft 442 kts 209°
2026-04-14 21:29 31.90340 125.74004 31953 ft 442 kts 209°
2026-04-14 21:30 31.84556 125.71573 31958 ft 442 kts 209°
2026-04-14 21:30 31.78764 125.69144 31965 ft 442 kts 209°
2026-04-14 21:31 31.73957 125.67129 31964 ft 442 kts 209°
2026-04-14 21:31 31.67176 125.64296 31953 ft 442 kts 209°
2026-04-14 21:32 31.62354 125.62274 31954 ft 442 kts 209°
2026-04-14 21:32 31.55635 125.59465 31958 ft 442 kts 208°
2026-04-14 21:33 31.50786 125.57441 31959 ft 442 kts 209°
2026-04-14 21:33 31.45001 125.55019 31968 ft 441 kts 209°
2026-04-14 21:34 31.39266 125.52617 31962 ft 440 kts 208°
2026-04-14 21:34 31.33499 125.50209 31966 ft 441 kts 208°
2026-04-14 21:35 31.27721 125.47795 31964 ft 441 kts 208°
2026-04-14 21:35 31.21949 125.45391 31964 ft 441 kts 208°
2026-04-14 21:36 31.16157 125.42980 31958 ft 442 kts 208°
2026-04-14 21:36 31.10366 125.40575 31960 ft 443 kts 208°
2026-04-14 21:37 31.04558 125.38161 31954 ft 443 kts 208°
2026-04-14 21:37 30.98752 125.35747 31953 ft 443 kts 208°
2026-04-14 21:38 30.92951 125.33349 31953 ft 443 kts 208°
2026-04-14 21:38 30.87178 125.30965 31952 ft 443 kts 208°
2026-04-14 21:39 30.81371 125.28566 31961 ft 443 kts 208°
2026-04-14 21:39 30.75563 125.26173 31962 ft 443 kts 208°
2026-04-14 21:40 30.69753 125.23779 31963 ft 443 kts 208°
2026-04-14 21:40 30.63942 125.21382 31960 ft 443 kts 208°
2026-04-14 21:41 30.58137 125.19004 31964 ft 442 kts 208°
2026-04-14 21:41 30.52340 125.16621 31961 ft 441 kts 208°
2026-04-14 21:42 30.46560 125.14254 31962 ft 440 kts 208°
2026-04-14 21:42 30.40812 125.11906 31964 ft 441 kts 208°
2026-04-14 21:43 30.35028 125.09537 31962 ft 440 kts 208°
2026-04-14 21:43 30.29247 125.07170 31963 ft 441 kts 208°
2026-04-14 21:44 30.23467 125.04813 31964 ft 441 kts 208°
2026-04-14 21:44 30.17680 125.02457 31961 ft 440 kts 208°
2026-04-14 21:45 30.11894 125.00102 31965 ft 441 kts 208°
2026-04-14 21:45 30.06108 124.97749 31961 ft 441 kts 208°
2026-04-14 21:46 30.00356 124.95412 31963 ft 441 kts 208°
2026-04-14 21:46 29.94598 124.92991 31966 ft 440 kts 209°
2026-04-14 21:47 29.88854 124.90521 31973 ft 441 kts 209°
2026-04-14 21:47 29.83092 124.88049 31971 ft 442 kts 209°
2026-04-14 21:48 29.77319 124.85586 31965 ft 443 kts 208°
2026-04-14 21:48 29.71537 124.83126 31963 ft 443 kts 208°
2026-04-14 21:49 29.65746 124.80667 31958 ft 444 kts 208°
2026-04-14 21:49 29.59959 124.78210 31951 ft 444 kts 208°
2026-04-14 21:50 29.54162 124.75754 31952 ft 444 kts 208°
2026-04-14 21:50 29.48367 124.73300 31954 ft 444 kts 208°
2026-04-14 21:51 29.42577 124.70851 31951 ft 444 kts 208°
2026-04-14 21:51 29.36788 124.68409 31955 ft 444 kts 208°
2026-04-14 21:52 29.30993 124.65961 31953 ft 444 kts 208°
2026-04-14 21:52 29.25235 124.63533 31952 ft 444 kts 208°
2026-04-14 21:53 29.19424 124.61087 31953 ft 445 kts 208°
2026-04-14 21:53 29.13605 124.58642 31955 ft 446 kts 208°
2026-04-14 21:54 29.07793 124.56202 31952 ft 445 kts 208°
2026-04-14 21:54 29.01969 124.53759 31954 ft 446 kts 208°
2026-04-14 21:55 28.96238 124.51110 31956 ft 440 kts 213°
2026-04-14 21:55 28.91000 124.47596 31956 ft 433 kts 221°
2026-04-14 21:56 28.86082 124.43610 31959 ft 435 kts 221°
2026-04-14 21:56 28.81134 124.39612 31954 ft 437 kts 221°
2026-04-14 21:57 28.76160 124.35615 31956 ft 438 kts 220°
2026-04-14 21:57 28.71164 124.31610 31954 ft 440 kts 220°
2026-04-14 21:58 28.66182 124.27625 31949 ft 441 kts 220°
2026-04-14 21:58 28.61149 124.23602 31946 ft 442 kts 220°
2026-04-14 21:59 28.56104 124.19579 31931 ft 443 kts 220°
2026-04-14 21:59 28.51061 124.15559 31949 ft 443 kts 220°
2026-04-14 22:00 28.46020 124.11539 31951 ft 442 kts 220°
2026-04-14 22:00 28.40971 124.07524 31933 ft 443 kts 220°
2026-04-14 22:01 28.35917 124.03507 31927 ft 444 kts 220°
2026-04-14 22:01 28.30864 123.99495 31924 ft 444 kts 220°
2026-04-14 22:02 28.25843 123.95422 31927 ft 443 kts 220°
2026-04-14 22:02 28.20873 123.91359 31925 ft 443 kts 220°
2026-04-14 22:03 28.15865 123.87280 31930 ft 443 kts 220°
2026-04-14 22:03 28.10848 123.83204 31929 ft 443 kts 220°
2026-04-14 22:04 28.05832 123.79135 31929 ft 443 kts 220°
2026-04-14 22:04 28.00820 123.75071 31928 ft 443 kts 220°
2026-04-14 22:05 27.95809 123.71017 31919 ft 443 kts 220°
2026-04-14 22:05 27.90800 123.66958 31919 ft 443 kts 220°
2026-04-14 22:06 27.85799 123.62888 31931 ft 443 kts 220°
2026-04-14 22:06 27.80785 123.58805 31917 ft 444 kts 220°
2026-04-14 22:07 27.75772 123.54736 31924 ft 444 kts 220°
2026-04-14 22:07 27.70774 123.50686 31925 ft 445 kts 220°
2026-04-14 22:08 27.65747 123.46613 31929 ft 445 kts 220°
2026-04-14 22:08 27.60708 123.42530 31933 ft 446 kts 220°
2026-04-14 22:09 27.55660 123.38453 31928 ft 446 kts 220°
2026-04-14 22:09 27.50614 123.34381 31926 ft 446 kts 220°
2026-04-14 22:10 27.45569 123.30314 31923 ft 446 kts 220°
2026-04-14 22:10 27.40526 123.26249 31930 ft 446 kts 220°
2026-04-14 22:11 27.35484 123.22192 31918 ft 446 kts 220°
2026-04-14 22:11 27.30439 123.18139 31923 ft 446 kts 220°
2026-04-14 22:12 27.25390 123.14083 31925 ft 446 kts 220°
2026-04-14 22:12 27.20340 123.10034 31928 ft 446 kts 220°
2026-04-14 22:13 27.15286 123.05986 31929 ft 446 kts 220°
2026-04-14 22:13 27.10264 123.01968 31931 ft 447 kts 219°
2026-04-14 22:14 27.05195 122.97921 31926 ft 447 kts 219°
2026-04-14 22:14 27.00119 122.93882 31924 ft 448 kts 219°
2026-04-14 22:15 26.95033 122.89842 31928 ft 448 kts 219°
2026-04-14 22:15 26.89940 122.85799 31912 ft 449 kts 219°
2026-04-14 22:16 26.84846 122.81757 31915 ft 449 kts 219°
2026-04-14 22:16 26.79749 122.77718 31916 ft 449 kts 219°
2026-04-14 22:17 26.74659 122.73688 31924 ft 448 kts 219°
2026-04-14 22:17 26.69562 122.69654 31928 ft 449 kts 219°
2026-04-14 22:18 26.64488 122.65651 31921 ft 450 kts 219°
2026-04-14 22:18 26.59373 122.61617 31922 ft 450 kts 219°
2026-04-14 22:19 26.51697 122.55565 31926 ft 450 kts 219°
2026-04-14 22:20 26.46570 122.51529 31922 ft 451 kts 219°
2026-04-14 22:20 26.41435 122.47492 31919 ft 452 kts 219°
2026-04-14 22:21 26.36294 122.43454 31914 ft 452 kts 219°
2026-04-14 22:21 26.31153 122.39422 31922 ft 452 kts 219°
2026-04-14 22:22 26.26005 122.35388 31921 ft 453 kts 219°
2026-04-14 22:22 26.20852 122.31351 31910 ft 452 kts 219°
2026-04-14 22:23 26.15739 122.27351 31921 ft 452 kts 219°
2026-04-14 22:23 26.10575 122.23344 31922 ft 453 kts 218°
2026-04-14 22:24 26.05379 122.19375 31916 ft 453 kts 218°
2026-04-14 22:24 26.00176 122.15404 31918 ft 454 kts 218°
2026-04-14 22:25 25.94973 122.11430 31917 ft 454 kts 218°
2026-04-14 22:25 25.89774 122.07459 31920 ft 454 kts 218°
2026-04-14 22:26 25.84572 122.03488 31913 ft 454 kts 218°
2026-04-14 22:26 25.79364 121.99517 31918 ft 454 kts 218°
2026-04-14 22:27 25.74157 121.95552 31912 ft 454 kts 218°
2026-04-14 22:27 25.68959 121.91574 31916 ft 454 kts 219°
2026-04-14 22:28 25.63784 121.87580 31914 ft 453 kts 219°
2026-04-14 22:28 25.58608 121.83595 31913 ft 453 kts 219°
2026-04-14 22:29 25.54305 121.80286 31916 ft 453 kts 219°
2026-04-14 22:29 25.48276 121.75654 31922 ft 454 kts 219°
2026-04-14 22:30 25.43079 121.71663 31921 ft 455 kts 219°
2026-04-14 22:30 25.38754 121.68345 31916 ft 456 kts 219°
2026-04-14 22:31 25.33536 121.64346 31924 ft 457 kts 218°
2026-04-14 22:31 25.28307 121.60343 31917 ft 458 kts 219°
2026-04-14 22:32 25.23068 121.56337 31920 ft 458 kts 218°
2026-04-14 22:32 25.17945 121.52155 31908 ft 456 kts 224°
2026-04-14 22:33 25.13488 121.47222 31918 ft 454 kts 231°
2026-04-14 22:33 25.09256 121.42030 31914 ft 455 kts 231°
2026-04-14 22:34 25.05012 121.36855 31919 ft 455 kts 230°
2026-04-14 22:34 25.00754 121.31687 31925 ft 455 kts 230°
2026-04-14 22:35 24.96512 121.26552 31913 ft 456 kts 230°
2026-04-14 22:35 24.92232 121.21382 31916 ft 457 kts 230°
2026-04-14 22:36 24.87942 121.16206 31916 ft 457 kts 230°
2026-04-14 22:36 24.83651 121.11027 31922 ft 458 kts 230°
2026-04-14 22:37 24.79353 121.05851 31916 ft 458 kts 230°
2026-04-14 22:37 24.75050 121.00672 31913 ft 459 kts 230°
2026-04-14 22:38 24.70742 120.95493 31917 ft 459 kts 230°
2026-04-14 22:38 24.66434 120.90317 31928 ft 459 kts 230°
2026-04-14 22:39 24.62119 120.85144 31918 ft 459 kts 230°
2026-04-14 22:39 24.57805 120.79977 31933 ft 458 kts 230°
2026-04-14 22:40 24.53496 120.74819 31940 ft 459 kts 230°
2026-04-14 22:40 24.49177 120.69652 31941 ft 459 kts 230°
2026-04-14 22:41 24.44875 120.64516 31937 ft 460 kts 230°
2026-04-14 22:41 24.40544 120.59349 31932 ft 460 kts 230°
2026-04-14 22:42 24.36202 120.54180 31941 ft 461 kts 230°
2026-04-14 22:42 24.31862 120.49010 31941 ft 461 kts 230°
2026-04-14 22:43 24.27511 120.43836 31940 ft 462 kts 230°
2026-04-14 22:43 24.23159 120.38667 31934 ft 462 kts 230°
2026-04-14 22:44 24.18800 120.33499 31932 ft 462 kts 230°
2026-04-14 22:44 24.14440 120.28326 31926 ft 462 kts 230°
2026-04-14 22:45 24.10075 120.23159 31929 ft 463 kts 230°
2026-04-14 22:45 24.05696 120.17981 31931 ft 463 kts 230°
2026-04-14 22:46 24.01319 120.12809 31918 ft 464 kts 230°
2026-04-14 22:46 23.96962 120.07669 31925 ft 464 kts 230°
2026-04-14 22:47 23.92576 120.02495 31921 ft 464 kts 230°
2026-04-14 22:47 23.88183 119.97324 31909 ft 464 kts 230°
2026-04-14 22:48 23.83791 119.92159 31908 ft 464 kts 230°
2026-04-14 22:48 23.79397 119.86996 31899 ft 464 kts 229°
2026-04-14 22:49 23.75003 119.81837 31894 ft 464 kts 229°
2026-04-14 22:49 23.70607 119.76677 31891 ft 464 kts 229°
2026-04-14 22:50 23.66215 119.71535 31891 ft 464 kts 229°
2026-04-14 22:50 23.61816 119.66386 31888 ft 464 kts 229°
2026-04-14 22:51 23.57201 119.61521 31891 ft 467 kts 222°
2026-04-14 22:51 23.52173 119.57039 31893 ft 467 kts 222°
2026-04-14 22:52 23.47139 119.52559 31889 ft 468 kts 222°
2026-04-14 22:52 23.42104 119.48054 31888 ft 468 kts 222°
2026-04-14 22:53 23.37074 119.43539 31886 ft 469 kts 222°
2026-04-14 22:53 23.32043 119.39027 31889 ft 469 kts 222°
2026-04-14 22:54 23.27002 119.34512 31887 ft 470 kts 222°
2026-04-14 22:54 23.21957 119.29998 31893 ft 470 kts 222°
2026-04-14 22:55 23.16944 119.25517 31900 ft 470 kts 222°
2026-04-14 22:55 23.11891 119.21004 31898 ft 470 kts 222°
2026-04-14 22:56 23.06835 119.16493 31899 ft 471 kts 222°
2026-04-14 22:56 23.01768 119.11979 31897 ft 471 kts 222°
2026-04-14 22:57 22.96699 119.07468 31899 ft 471 kts 222°
2026-04-14 22:57 22.91626 119.02958 31898 ft 472 kts 222°
2026-04-14 22:58 22.86552 118.98449 31892 ft 472 kts 222°
2026-04-14 22:58 22.81474 118.93940 31891 ft 472 kts 221°
2026-04-14 22:59 22.76423 118.89462 31888 ft 472 kts 221°
2026-04-14 22:59 22.71333 118.84953 31888 ft 473 kts 221°
2026-04-14 23:00 22.66242 118.80449 31895 ft 472 kts 221°
2026-04-14 23:00 22.61152 118.75949 31898 ft 472 kts 221°
2026-04-14 23:01 22.56059 118.71452 31901 ft 473 kts 221°
2026-04-14 23:01 22.50959 118.66954 31888 ft 473 kts 221°
2026-04-14 23:02 22.45851 118.62451 31890 ft 474 kts 221°
2026-04-14 23:02 22.40743 118.57952 31888 ft 474 kts 221°
2026-04-14 23:03 22.35626 118.53450 31892 ft 475 kts 221°
2026-04-14 23:03 22.30541 118.48981 31898 ft 475 kts 221°
2026-04-14 23:04 22.25406 118.44472 31900 ft 476 kts 221°
2026-04-14 23:04 22.20270 118.39967 31898 ft 476 kts 221°
2026-04-14 23:05 22.15124 118.35458 31897 ft 476 kts 221°
2026-04-14 23:05 22.09978 118.30954 31898 ft 476 kts 221°
2026-04-14 23:06 22.04832 118.26453 31895 ft 476 kts 221°
2026-04-14 23:06 21.99682 118.21952 31898 ft 477 kts 221°
2026-04-14 23:07 21.94529 118.17453 31899 ft 477 kts 221°
2026-04-14 23:07 21.89372 118.12959 31897 ft 477 kts 221°
2026-04-14 23:08 21.84215 118.08463 31899 ft 477 kts 221°
2026-04-14 23:08 21.79053 118.03975 31900 ft 477 kts 221°
2026-04-14 23:09 21.73892 117.99489 31899 ft 477 kts 221°
2026-04-14 23:09 21.68766 117.95032 31898 ft 477 kts 221°
2026-04-14 23:10 21.63605 117.90553 31899 ft 477 kts 221°
2026-04-14 23:10 21.58442 117.86079 31898 ft 477 kts 221°
2026-04-14 23:11 21.53280 117.81603 31897 ft 477 kts 221°
2026-04-14 23:11 21.48116 117.77129 31898 ft 477 kts 220°
2026-04-14 23:12 21.42940 117.72656 31908 ft 478 kts 220°
2026-04-14 23:12 21.37762 117.68187 31909 ft 478 kts 220°
2026-04-14 23:13 21.32584 117.63716 31903 ft 478 kts 220°
2026-04-14 23:13 21.27405 117.59249 31906 ft 478 kts 220°
2026-04-14 23:14 21.22222 117.54783 31908 ft 478 kts 220°
2026-04-14 23:14 21.17506 117.49833 31905 ft 474 kts 233°
2026-04-14 23:15 21.14010 117.43870 31908 ft 473 kts 246°
2026-04-14 23:15 21.11374 117.37466 31910 ft 473 kts 247°
2026-04-14 23:16 21.08758 117.30997 31907 ft 474 kts 247°
2026-04-14 23:16 21.06107 117.24528 31909 ft 475 kts 246°
2026-04-14 23:17 21.03427 117.18062 31908 ft 475 kts 246°
2026-04-14 23:17 21.00737 117.11598 31910 ft 476 kts 246°
2026-04-14 23:18 20.96694 117.01905 31907 ft 475 kts 246°
2026-04-14 23:18 20.94000 116.95450 31908 ft 475 kts 246°
2026-04-14 23:19 20.91310 116.89012 31909 ft 474 kts 246°
2026-04-14 23:19 20.88639 116.82622 31907 ft 474 kts 246°
2026-04-14 23:20 20.85946 116.76194 31906 ft 474 kts 246°
2026-04-14 23:20 20.83249 116.69763 31907 ft 474 kts 246°
2026-04-14 23:21 20.80545 116.63335 31909 ft 474 kts 246°
2026-04-14 23:21 20.77843 116.56903 31911 ft 475 kts 246°
2026-04-14 23:22 20.75140 116.50474 31905 ft 475 kts 246°
2026-04-14 23:22 20.72425 116.44040 31908 ft 475 kts 246°
2026-04-14 23:23 20.69707 116.37600 31908 ft 476 kts 246°
2026-04-14 23:23 20.66998 116.31189 31908 ft 476 kts 246°
2026-04-14 23:24 20.64271 116.24742 31906 ft 477 kts 246°
2026-04-14 23:24 20.61540 116.18291 31899 ft 477 kts 246°
2026-04-14 23:25 20.58798 116.11827 31889 ft 478 kts 246°
2026-04-14 23:25 20.56057 116.05376 31890 ft 478 kts 246°
2026-04-14 23:26 20.53316 115.98927 31888 ft 477 kts 246°
2026-04-14 23:26 20.50587 115.92514 31890 ft 477 kts 246°
2026-04-14 23:27 20.47835 115.86058 31888 ft 477 kts 246°
2026-04-14 23:27 20.45077 115.79598 31888 ft 477 kts 246°
2026-04-14 23:28 20.42792 115.74248 31889 ft 477 kts 246°
2026-04-14 23:28 20.40049 115.67833 31888 ft 477 kts 246°
2026-04-14 23:29 20.37293 115.61395 31890 ft 477 kts 246°
2026-04-14 23:29 20.34537 115.54964 31890 ft 477 kts 246°
2026-04-14 23:30 20.31773 115.48531 31889 ft 477 kts 246°
2026-04-14 23:30 20.29009 115.42103 31888 ft 477 kts 246°
2026-04-14 23:31 20.26266 115.35722 31891 ft 477 kts 246°
2026-04-14 23:31 20.23503 115.29308 31887 ft 477 kts 246°
2026-04-14 23:32 20.20734 115.22890 31889 ft 476 kts 246°
2026-04-14 23:32 20.17969 115.16486 31890 ft 476 kts 246°
2026-04-14 23:33 20.15208 115.10089 31890 ft 476 kts 245°
2026-04-14 23:33 20.12435 115.03683 31889 ft 477 kts 245°
2026-04-14 23:34 20.09657 114.97280 31887 ft 476 kts 245°
2026-04-14 23:34 20.06880 114.90879 31887 ft 476 kts 245°
2026-04-14 23:35 20.04119 114.84525 31878 ft 476 kts 245°
2026-04-14 23:35 20.01337 114.78130 31879 ft 477 kts 245°
2026-04-14 23:36 19.98552 114.71731 31877 ft 477 kts 245°
2026-04-14 23:36 19.95778 114.65365 31887 ft 478 kts 245°
2026-04-14 23:37 19.92978 114.58953 31890 ft 479 kts 245°
2026-04-14 23:37 19.90168 114.52521 31888 ft 480 kts 245°
2026-04-14 23:38 19.87355 114.46087 31889 ft 481 kts 245°
2026-04-14 23:38 19.84533 114.39643 31888 ft 481 kts 245°
2026-04-14 23:39 19.81709 114.33202 31888 ft 481 kts 245°
2026-04-14 23:39 19.78883 114.26769 31889 ft 480 kts 245°
2026-04-14 23:40 19.76081 114.20398 31886 ft 479 kts 245°
2026-04-14 23:40 19.73263 114.13993 31890 ft 479 kts 245°
2026-04-14 23:41 19.70447 114.07599 31888 ft 478 kts 245°
2026-04-14 23:41 19.67626 114.01204 31888 ft 478 kts 245°
2026-04-14 23:42 19.64808 113.94820 31886 ft 478 kts 245°
2026-04-14 23:42 19.61989 113.88440 31889 ft 478 kts 245°
2026-04-14 23:43 19.59157 113.82045 31880 ft 479 kts 245°
2026-04-14 23:43 19.56330 113.75657 31876 ft 479 kts 245°
2026-04-14 23:44 19.53489 113.69259 31881 ft 480 kts 245°
2026-04-14 23:44 19.50648 113.62859 31875 ft 480 kts 245°
2026-04-14 23:45 19.47822 113.56503 31881 ft 480 kts 245°
2026-04-14 23:45 19.44969 113.50097 31873 ft 481 kts 245°
2026-04-14 23:46 19.42115 113.43689 31862 ft 481 kts 245°
2026-04-14 23:46 19.39262 113.37288 31855 ft 481 kts 245°
2026-04-14 23:47 19.36399 113.30886 31864 ft 481 kts 245°
2026-04-14 23:47 19.33538 113.24485 31864 ft 481 kts 245°
2026-04-14 23:48 19.30672 113.18084 31864 ft 481 kts 245°
2026-04-14 23:48 19.27806 113.11689 31861 ft 481 kts 245°
2026-04-14 23:49 19.24956 113.05338 31863 ft 481 kts 245°
2026-04-14 23:49 19.22079 112.98934 31860 ft 482 kts 245°
2026-04-14 23:50 19.19200 112.92530 31864 ft 482 kts 245°
2026-04-14 23:50 19.16321 112.86131 31856 ft 482 kts 245°
2026-04-14 23:51 19.13435 112.79729 31852 ft 482 kts 245°
2026-04-14 23:51 19.10555 112.73336 31853 ft 482 kts 245°
2026-04-14 23:52 19.07666 112.66948 31841 ft 481 kts 245°
2026-04-14 23:52 19.04781 112.60564 31851 ft 481 kts 245°
2026-04-14 23:53 19.01849 112.54211 31837 ft 481 kts 240°
2026-04-14 23:53 18.97751 112.48636 31858 ft 483 kts 226°
2026-04-14 23:54 18.92561 112.44221 31856 ft 484 kts 216°
2026-04-14 23:54 18.87014 112.40159 31851 ft 486 kts 216°
2026-04-14 23:55 18.81483 112.36042 31854 ft 487 kts 217°
2026-04-14 23:55 18.75967 112.31878 31854 ft 488 kts 217°
2026-04-14 23:56 18.70717 112.27918 31852 ft 488 kts 217°
2026-04-14 23:56 18.65715 112.23112 31859 ft 487 kts 229°
2026-04-14 23:57 18.61598 112.17461 31860 ft 486 kts 237°
2026-04-14 23:57 18.57881 112.11506 31857 ft 486 kts 237°
2026-04-14 23:58 18.54163 112.05548 31851 ft 486 kts 237°
2026-04-14 23:58 18.50424 111.99610 31855 ft 486 kts 237°
2026-04-14 23:59 18.46669 111.93683 31852 ft 487 kts 237°
2026-04-14 23:59 18.43029 111.87946 31852 ft 487 kts 237°
2026-04-15 00:00 18.39262 111.82015 31855 ft 487 kts 237°
2026-04-15 00:00 18.35491 111.76082 31853 ft 488 kts 237°
2026-04-15 00:01 18.31718 111.70151 31848 ft 488 kts 236°
2026-04-15 00:01 18.27944 111.64221 31835 ft 488 kts 236°
2026-04-15 00:02 18.24164 111.58287 31847 ft 488 kts 236°
2026-04-15 00:02 18.20384 111.52362 31840 ft 488 kts 236°
2026-04-15 00:03 18.16602 111.46436 31839 ft 488 kts 236°
2026-04-15 00:03 18.12817 111.40513 31842 ft 488 kts 236°
2026-04-15 00:04 18.09034 111.34599 31863 ft 487 kts 236°
2026-04-15 00:04 18.05257 111.28698 31857 ft 487 kts 236°
2026-04-15 00:05 18.01475 111.22794 31861 ft 487 kts 236°
2026-04-15 00:05 17.97717 111.16934 31859 ft 487 kts 236°
2026-04-15 00:06 17.93931 111.11032 31862 ft 488 kts 236°
2026-04-15 00:06 17.90133 111.05121 31864 ft 488 kts 236°
2026-04-15 00:07 17.86328 110.99207 31862 ft 489 kts 236°
2026-04-15 00:07 17.82516 110.93286 31859 ft 490 kts 236°
2026-04-15 00:08 17.78704 110.87365 31852 ft 490 kts 236°